Location: Alafon
(8.4500°N, 4.2333°E)
Time: 01:38:17
(UTC+00:00)

Cosmos 1892 Rocket - Pass Details

Date: 05 July 2020
Orbit: 607 x 632 km, 82.5° (Epoch: 06 August)

Event Time Altitude Azimuth Distance (km) Brightness Sun altitude
Rises 19:02:20 0° 189° (S) 2,857 6.8 -13.6°
Reaches altitude 10° 19:04:34 10° 192° (SSW) 1,952 6.0 -14.1°
Maximum altitude 19:08:51 66° 274° (W) 661 3.9 -15.0°
Drops below altitude 10° 19:13:08 10° 357° (N) 1,950 6.5 -16.0°
Sets 19:15:21 0° 360° (N) 2,854 7.3 -16.5°
